Dauntless Aviation
Greetings, Guest! To participate, [sign up for a free account] or [log in]
Airports South America Argentina
SABE
AEP

Aeroparque Jorge Newbery

Buenos Aires, ARGENTINA

Airport Info
Edit

Location

Latitude / Longitude: 34°33'33"S / 58°24'56"W
  34°33.552'S / 58°24.936'W
  -34.5592 / -58.4156

Nearby radio navigation aids

FDO SAN FERNANDO VOR/DME. 132.7° 10.6nm from FDO to field.
OP AEROPARQUE JORGE NEWBERY NDB. 131.1° 4.3nm from OP to field.

Runway Information

Runway 13 /31

Dimensions: 6890 x 131 ft.
Surface: ASP
 
Runway 13
Runway 31
Latitude: -34.553942 -34.563844
Longitude: -58.425247 -58.407506
Elevation: 18 ft. 18 ft.
Runway true heading: 126.3 306.3
 

Instrument Procedures

STARs (Standard Terminal Arrivals)

  STAR Rwy 13/16 PAGON7C SANANTONIO7C ASADA7C VALOS8C
  STAR Rwy 13/16 SURBO7A SARGO7C KOVUK7C TENIL7C BELGRANO7C
  STAR Rwy 31 SURBO2B SARGO7D KOVUK7D TENIL7D BELGRANO7D VALOS7D ASADA7D
  STAR Rwy 31 PAGON7D SANANTONIO7D

IAPs (Instrument Approach Procedures)

  VOR (DME) ILS (DME) Rwy 13 (From VANAR)
  VOR (DME) ILS (DME) Rwy 13
  LI ILS (DME) Rwy 13
  VOR (DME) LO LI Rwy 13 (From VANAR)
  LI LO LI Rwy 13
  LI Rwy 13 (From QUILMES)
  LI Rwy 31

Departure Procedures

  SID Rwy 13/31
  SID Rwy 13/31 Textual Description
  SID Rwy 13/31 LANDA3B BIVAM3B ATOVO3B
  SID 13/31 LANDA3B BIVAM3B ATOVO3B Textual Description
  SID Rwy 13/31 KUKEN7 SUROBO7 DORVO7 LAPLATA7
  SID Rwy 13/31 KUKEN7 SUROBO7 DORVO7 LAPLATA7 Textual Description
  SID S Rwy 13/31
  SID Rwy 13/31 Textual Description
Satellite photo at:
Airport distance calculator
From:
Weather Reports

METAR

SABE

SABE 011600Z 05010KT CAVOK 15/08 Q1016
SADF
10.6nm W
SADF 011600Z 05010KT CAVOK 15/08 Q1016
SAEZ
16.2nm S
SAEZ 011600Z 07012KT CAVOK 16/08 Q1016

TAF

SABE
TAF SABE 011100Z 0112/0212 09005KT CAVOK TX17/0118Z TN13/0210Z BECMG 0116/0119 09010KT 9999 BKN030 BKN060 BECMG 0121/0123 09015KT 8000 RA BKN015 OVC040 PROB40 TEMPO 0205/0208 TSRA FEW035CB BECMG 0208/0211 09005KT
SADF
10.6nm W
TAF SADF 011100Z 0112/0212 07005KT 9999 SCT020 BKN200 TX17/0118Z TN10/0210Z BECMG 0121/0123 09010KT 6000 RA BKN020 OVC050 PROB30 TEMPO 0203/0210 3000 -TSRA BKN015 FEW035 OVC040
SAEZ
16.2nm S
TAF SAEZ 011100Z 0112/0212 05005KT 8000 FEW010 TX16/0118Z TN11/0210Z BECMG 0111/0113 07010KT 9000 SCT030 BECMG 0200/0203 04015KT 5000 RA BR SCT010 BKN040
SUCA
30.3nm NE
SUCA 011100Z 0112/0212 02010KT CAVOK TX16/0118Z TN10/0210Z BECMG 0115/0117 09010KT BECMG 0118/0120 9999 BKN030 BKN200 PROB40 TEMPO 0200/0212 02020KT 6000 RA BKN010 OVC060
Safelog

 

Dauntless Aviation

© 2007-2015 Dauntless Aviation, all rights reserved
Information provided via PilotNav comes from a variety of official and unofficial data sources. As errors are possible, do not use PilotNav for primary flight planning purposes. Verify any information that you receive via PilotNav with current and canonical charts and other official documents. The material in this database is subject to database copyrights held by Dauntless Aviation and may not be copied without the express permission of Dauntless Aviation - licenses for use of part of all of this data are available for purchase; enquire via the Dauntless Aviation helpdesk. A number of mechanisms and markers exist in the database to protect against and identify infringement / copyright. Automated queries against this website are stictly prohibited, and all activity is logged and analyzed.